Hourly Data Report for September 26, 2017

All times are specified in Local Standard Time (LST). Add 1 hour to adjust for Daylight Saving Time where and when it is observed.

EUREKA CLIMATE
NUNAVUT

79°59'21.000" N
85°56'02.000" W
10.00 m
2401199
71613
NEK

Download Data

Hourly Data (September 2017)
Hourly Data Report for September 26, 2017
Temp Definition
°C
Dew Point Temp Definition
°C
Rel Hum Definition
%
Wind Dir Definition
10's deg

Wind Spd Definition
km/h
Visibility Definition
km
Stn Press Definition
kPa
Hmdx Definition


Wind Chill Definition


Weather Definition


TIME
00:00 -17.0 -18.3 90 6 6   101.37   -22 LegendNANA
01:00 -17.4 -18.7 89 8 7   101.40   -23 LegendNANA
02:00 -17.5 -18.8 89 7 8   101.41   -23 LegendNANA
03:00 -17.7 -19.1 89 8 4   101.42   -21 LegendNANA
04:00 -17.8 -19.2 89 8 5   101.43   -22 LegendNANA
05:00 -18.3 -19.7 88 3 5   101.42   -22 LegendNANA
06:00 -18.7 -20.3 87 13 2   101.40   -20 LegendNANA
07:00 -18.4 -19.7 89 7 2   101.37   -20 LegendNANA
08:00 -18.2 -19.4 90 12 2   101.35   -20 LegendNANA
09:00 -18.3 -19.8 88 6 3   101.33   -21 LegendNANA
10:00 -18.1 -19.5 89 7 4   101.31   -21 LegendNANA
11:00 -17.0 -17.9 93 11 2   101.28   -19 LegendNANA
12:00 -15.8 -16.9 91 10 4   101.26   -19 LegendNANA
13:00 -16.4 -17.4 92 14 3   101.24   -19 LegendNANA
14:00 -16.6 -18.1 88 7 2   101.22   -18 LegendNANA
15:00 -16.9 -19.3 81 9 3   101.21   -19 LegendNANA
16:00 -16.0 -17.4 89 4 8   101.16   -22 LegendNANA
17:00 -17.1 -18.6 88 4 6   101.14   -22 LegendNANA
18:00 -19.3 -21.1 85 11 4   101.09   -23 LegendNANA
19:00 -18.5 -20.1 88 9 3   101.04   -21 LegendNANA
20:00 -19.2 -20.9 86 8 4   100.99   -23 LegendNANA
21:00 -17.7 -18.8 91 8 6   100.97   -22 LegendNANA
22:00 -19.9 -21.6 87 9 4   100.93   -23 LegendNANA
23:00 -20.1 -21.8 87 10 4   100.89   -24 LegendNANA

Notes on Data Quality.

Legend

  • E = Estimated
  • M = Missing
  • NA = Not Available
  • ‡ = Partner data that is not subject to review by the National Climate Archives
Date modified: